TimeCDT,TemperatureF,Dew PointF,Humidity,Sea Level PressureIn,VisibilityMPH,Wind Direction,Wind SpeedMPH,Gust SpeedMPH,PrecipitationIn,Events,Conditions,WindDirDegrees,DateUTC
12:13 AM,39.2,30.2,70,30.16,10.0,West,12.7,20.7,N/A,,Mostly Cloudy,280,2012-10-05 05:13:00
12:33 AM,37.4,30.2,75,30.15,10.0,West,12.7,17.3,N/A,,Scattered Clouds,270,2012-10-05 05:33:00
12:53 AM,37.4,30.2,75,30.15,10.0,West,17.3,21.9,N/A,,Clear,270,2012-10-05 05:53:00
1:13 AM,37.4,30.2,75,30.15,10.0,West,12.7,21.9,N/A,,Clear,280,2012-10-05 06:13:00
1:33 AM,37.4,30.2,75,30.15,10.0,WNW,13.8,17.3,N/A,,Scattered Clouds,290,2012-10-05 06:33:00
1:53 AM,39.2,30.2,70,30.15,10.0,West,12.7,19.6,N/A,,Overcast,280,2012-10-05 06:53:00
2:13 AM,39.2,30.2,70,30.15,10.0,West,15.0,21.9,N/A,,Overcast,280,2012-10-05 07:13:00
2:33 AM,39.2,30.2,70,30.15,10.0,West,10.4,19.6,N/A,,Overcast,280,2012-10-05 07:33:00
2:53 AM,39.2,28.4,65,30.14,10.0,West,9.2,-,N/A,,Overcast,270,2012-10-05 07:53:00
3:13 AM,39.2,30.2,70,30.13,10.0,West,10.4,16.1,N/A,,Overcast,280,2012-10-05 08:13:00
3:33 AM,39.2,30.2,70,30.13,10.0,West,16.1,20.7,N/A,,Overcast,270,2012-10-05 08:33:00
3:53 AM,39.2,28.4,65,30.13,10.0,West,16.1,-,N/A,,Overcast,280,2012-10-05 08:53:00
4:13 AM,39.2,28.4,65,30.14,10.0,West,17.3,23.0,N/A,,Overcast,280,2012-10-05 09:13:00
4:33 AM,37.4,26.6,65,30.14,10.0,WNW,9.2,18.4,N/A,,Mostly Cloudy,290,2012-10-05 09:33:00
4:53 AM,37.4,26.6,65,30.13,10.0,WNW,11.5,16.1,N/A,,Scattered Clouds,300,2012-10-05 09:53:00
5:13 AM,37.4,26.6,65,30.14,10.0,West,12.7,18.4,N/A,,Unknown,280,2012-10-05 10:13:00
5:33 AM,35.6,26.6,70,30.13,10.0,West,8.1,-,N/A,,Clear,270,2012-10-05 10:33:00
5:53 AM,35.6,26.6,70,30.14,10.0,West,6.9,-,N/A,,Clear,260,2012-10-05 10:53:00
6:13 AM,33.8,26.6,75,30.13,10.0,West,10.4,-,N/A,,Clear,270,2012-10-05 11:13:00
6:33 AM,33.8,26.6,75,30.14,10.0,WSW,8.1,-,N/A,,Clear,250,2012-10-05 11:33:00
6:53 AM,33.8,26.6,75,30.14,10.0,West,10.4,16.1,N/A,,Clear,260,2012-10-05 11:53:00
7:14 AM,33.8,26.6,75,30.14,10.0,West,8.1,16.1,N/A,,Clear,260,2012-10-05 12:14:00
7:33 AM,33.8,26.6,75,30.14,10.0,West,10.4,17.3,N/A,,Clear,270,2012-10-05 12:33:00
7:53 AM,33.8,26.6,75,30.14,10.0,West,16.1,19.6,N/A,,Clear,280,2012-10-05 12:53:00
8:14 AM,33.8,26.6,75,30.14,10.0,West,16.1,21.9,N/A,,Clear,270,2012-10-05 13:14:00
8:33 AM,33.8,26.6,75,30.14,10.0,West,15.0,20.7,N/A,,Clear,280,2012-10-05 13:33:00
8:53 AM,35.6,26.6,70,30.14,10.0,West,15.0,24.2,N/A,,Clear,280,2012-10-05 13:53:00
9:14 AM,35.6,26.6,70,30.14,10.0,WNW,18.4,24.2,N/A,,Clear,290,2012-10-05 14:14:00
9:33 AM,37.4,26.6,65,30.14,10.0,West,16.1,24.2,N/A,,Clear,280,2012-10-05 14:33:00
9:53 AM,37.4,26.6,65,30.14,10.0,West,17.3,25.3,N/A,,Clear,280,2012-10-05 14:53:00
10:14 AM,37.4,26.6,65,30.14,10.0,WNW,20.7,28.8,N/A,,Clear,300,2012-10-05 15:14:00
10:33 AM,39.2,26.6,61,30.14,10.0,West,18.4,28.8,N/A,,Clear,280,2012-10-05 15:33:00
10:53 AM,39.2,26.6,61,30.13,10.0,WNW,19.6,29.9,N/A,,Clear,300,2012-10-05 15:53:00
11:14 AM,41.0,26.6,57,30.13,10.0,West,19.6,27.6,N/A,,Clear,280,2012-10-05 16:14:00
11:33 AM,42.8,24.8,49,30.12,10.0,West,18.4,28.8,N/A,,Clear,280,2012-10-05 16:33:00
11:53 AM,42.8,24.8,49,30.13,10.0,WNW,20.7,28.8,N/A,,Clear,290,2012-10-05 16:53:00
12:13 PM,42.8,24.8,49,30.12,10.0,WNW,18.4,29.9,N/A,,Clear,300,2012-10-05 17:13:00
12:33 PM,42.8,26.6,53,30.12,10.0,WNW,20.7,27.6,N/A,,Scattered Clouds,290,2012-10-05 17:33:00
12:54 PM,42.8,26.6,53,30.13,10.0,WNW,12.7,24.2,N/A,,Scattered Clouds,290,2012-10-05 17:54:00
1:33 PM,44.6,26.6,49,30.11,10.0,WNW,20.7,29.9,N/A,,Scattered Clouds,290,2012-10-05 18:33:00
1:54 PM,44.6,26.6,49,30.11,10.0,West,20.7,26.5,N/A,,Scattered Clouds,280,2012-10-05 18:54:00
2:13 PM,44.6,26.6,49,30.10,10.0,WNW,17.3,25.3,N/A,,Scattered Clouds,290,2012-10-05 19:13:00
2:33 PM,44.6,26.6,49,30.10,10.0,WNW,23.0,28.8,N/A,,Scattered Clouds,300,2012-10-05 19:33:00
2:54 PM,44.6,24.8,46,30.10,10.0,WNW,16.1,31.1,N/A,,Scattered Clouds,290,2012-10-05 19:54:00
3:13 PM,44.6,24.8,46,30.10,10.0,WNW,19.6,31.1,N/A,,Mostly Cloudy,290,2012-10-05 20:13:00
3:33 PM,44.6,26.6,49,30.10,10.0,WNW,21.9,29.9,N/A,,Mostly Cloudy,290,2012-10-05 20:33:00
3:54 PM,46.4,26.6,46,30.10,10.0,WNW,20.7,31.1,N/A,,Mostly Cloudy,300,2012-10-05 20:54:00
4:13 PM,44.6,24.8,46,30.10,10.0,WNW,23.0,28.8,N/A,,Overcast,290,2012-10-05 21:13:00
4:33 PM,42.8,26.6,53,30.10,10.0,WNW,24.2,28.8,N/A,,Overcast,290,2012-10-05 21:33:00
4:52 PM,42.8,24.8,49,30.11,10.0,West,16.1,27.6,N/A,,Overcast,280,2012-10-05 21:52:00
5:13 PM,41.0,24.8,53,30.11,10.0,WNW,21.9,28.8,N/A,,Overcast,300,2012-10-05 22:13:00
5:33 PM,41.0,24.8,53,30.12,10.0,WNW,21.9,27.6,N/A,,Overcast,290,2012-10-05 22:33:00
5:53 PM,39.2,24.8,56,30.13,10.0,WNW,16.1,29.9,N/A,,Overcast,290,2012-10-05 22:53:00
6:13 PM,39.2,24.8,56,30.13,10.0,WNW,18.4,28.8,N/A,,Overcast,300,2012-10-05 23:13:00
6:33 PM,39.2,24.8,56,30.13,10.0,WNW,15.0,25.3,N/A,,Overcast,300,2012-10-05 23:33:00
6:53 PM,39.2,24.8,56,30.13,10.0,WNW,20.7,28.8,N/A,,Overcast,300,2012-10-05 23:53:00
7:13 PM,39.2,24.8,56,30.13,10.0,WNW,20.7,27.6,N/A,,Overcast,290,2012-10-06 00:13:00
7:33 PM,39.2,24.8,56,30.14,10.0,WNW,17.3,20.7,N/A,,Overcast,290,2012-10-06 00:33:00
7:53 PM,39.2,24.8,56,30.14,10.0,West,16.1,24.2,N/A,,Overcast,280,2012-10-06 00:53:00
8:13 PM,39.2,24.8,56,30.14,10.0,West,11.5,23.0,N/A,,Overcast,280,2012-10-06 01:13:00
8:34 PM,39.2,24.8,56,30.14,10.0,West,16.1,20.7,N/A,,Overcast,280,2012-10-06 01:34:00
8:53 PM,39.2,26.6,61,30.14,10.0,WNW,15.0,26.5,N/A,,Overcast,290,2012-10-06 01:53:00
9:13 PM,39.2,26.6,61,30.14,10.0,WNW,11.5,21.9,N/A,,Overcast,300,2012-10-06 02:13:00
9:34 PM,39.2,26.6,61,30.14,10.0,WNW,15.0,26.5,N/A,,Overcast,300,2012-10-06 02:34:00
9:53 PM,39.2,26.6,61,30.15,10.0,WNW,16.1,24.2,N/A,,Overcast,300,2012-10-06 02:53:00
10:34 PM,37.4,26.6,65,30.15,10.0,WNW,17.3,25.3,N/A,,Scattered Clouds,300,2012-10-06 03:34:00
10:53 PM,37.4,26.6,65,30.14,10.0,WNW,13.8,21.9,N/A,,Scattered Clouds,290,2012-10-06 03:53:00
11:33 PM,37.4,26.6,65,30.14,10.0,WNW,18.4,27.6,N/A,,Overcast,300,2012-10-06 04:33:00
11:53 PM,37.4,26.6,65,30.14,10.0,WNW,13.8,24.2,N/A,,Overcast,300,2012-10-06 04:53:00